Location: Powder Track
(41.8531°N, 72.3584°W)
Time: 08:01:32
(UTC+00:00)

Altair - Pass Details

Date: 07 August 2021
Orbit: 1501 x 1682 km, 47.2° (Epoch: 19 September)

Event Time Altitude Azimuth Distance (km) Brightness Sun altitude
Exits shadow 07:26:10 - 275° (W) 4,111 9.4 -22.2°
Reaches altitude 10° 07:27:21 10° 277° (W) 3,740 9.2 -22.1°
Maximum altitude 07:36:41 63° 358° (N) 1,668 7.8 -20.9°
Drops below altitude 10° 07:45:47 10° 79° (E) 3,655 10.3 -19.8°
Sets 07:48:51 0° 83° (E) 4,634 10.9 -19.4°
